Location: Melbourne
(37.8666°S, 145.1333°E)
Time: 07:24:31
(UTC+10:00)

Amateur Radio Satellites - All Passes

Search period start: 28 August 2015 06:54
Search period end: 29 August 2015 06:54
Location: Melbourne, 37.8666°S, 145.1333°E

Satellite Date Start Highest point End Downlink Frequencies (MHz)
Time Altitude Azimuth
CUTE 1.7 + AOD 2 28 Aug 07:00:46 07:02:52 14° 113° (ESE) 07:05:09 437.475
CINEMA 3 28 Aug 07:11:40 07:13:01 11° 114° (ESE) 07:14:36 145.822/145.860
HO-68 28 Aug 07:11:43 07:18:12 39° 114° (ESE) 07:24:49 435.675
CANX-2 28 Aug 07:12:48 07:15:57 21° 111° (ESE) 07:19:15 2200.000
O/OREOS (USA 219) 28 Aug 07:15:18 07:19:43 51° 73° (ENE) 07:24:11 437.305
DOVE 4 28 Aug 07:24:04 07:28:44 40° 107° (ESE) 07:33:14 437.250
BRITE-PL 28 Aug 07:29:28 07:35:07 66° 281° (W) 07:40:32 437.365/2234.400
AIST 1 28 Aug 07:33:10 07:37:38 82° 95° (E) 07:41:58
RS-15 28 Aug 07:38:50 07:48:25 25° 208° (SSW) 07:57:24 29.354- 29.394
SEEDS 28 Aug 07:42:32 07:46:14 32° 108° (ESE) 07:50:04 437.485
Cosmos 2491 28 Aug 07:44:43 07:53:05 45° 106° (ESE) 08:01:27 435.465 / 435.565
PRISM 28 Aug 07:45:36 07:49:53 80° 256° (WSW) 07:54:05 437.425
STRAND 1 28 Aug 07:53:52 07:58:59 56° 253° (WSW) 08:04:01 437.568
YUBILEINY 28 Aug 07:54:11 08:00:13 22° 97° (E) 08:06:39 435.215
COMPASS 1 28 Aug 08:12:16 08:16:21 55° 106° (ESE) 08:20:31 437.405
GOMX 1 28 Aug 08:24:28 08:29:13 31° 276° (W) 08:33:44 467.674
AAUSAT CUBESAT 2 28 Aug 08:26:47 08:30:55 69° 104° (ESE) 08:35:08 437.432
CUTE 1.7 + AOD 2 28 Aug 08:34:17 08:38:23 47° 279° (W) 08:42:33 437.475
CINEMA 3 28 Aug 08:45:10 08:49:48 67° 281° (W) 08:54:16 145.822/145.860
CANX-2 28 Aug 08:47:58 08:51:43 30° 275° (W) 08:55:28 2200.000
Oscar 11 28 Aug 08:56:41 09:00:58 66° 104° (ESE) 09:05:19 145.826/435.025
O/OREOS (USA 219) 28 Aug 08:56:42 08:59:32 16° 235° (SW) 09:02:12 437.305
HO-68 28 Aug 08:59:16 09:05:55 39° 277° (W) 09:12:32 435.675
DOVE 4 28 Aug 09:02:48 09:06:37 21° 273° (W) 09:10:10 437.250
UKube-1 28 Aug 09:04:47 09:05:39 11° 116° (ESE) 09:06:47 .
CUBEBUG 2 28 Aug 09:07:59 09:12:23 85° 285° (WNW) 09:16:43 437.445
VELOX 1 28 Aug 09:17:16 09:17:23 10° 116° (ESE) 09:17:46 145.980
SEEDS 28 Aug 09:19:03 09:22:08 19° 272° (W) 09:25:06 437.485
HUMSAT D 28 Aug 09:19:09 09:22:35 26° 109° (ESE) 09:26:08 437.325/437.525
UWE-3 28 Aug 09:25:12 09:29:31 70° 281° (W) 09:33:48 435.000/436.395/437.385
DELFI C3 28 Aug 09:25:25 09:29:26 88° 284° (WNW) 09:33:33 145.870
ZACube-1 28 Aug 09:29:13 09:33:31 84° 282° (WNW) 09:37:47 437.345
FUNcube-1 28 Aug 09:36:55 09:41:10 71° 282° (WNW) 09:45:25 145.935
Cosmos 2491 28 Aug 09:41:52 09:49:51 37° 267° (W) 09:57:32 435.465 / 435.565
YUBILEINY 28 Aug 09:47:32 09:56:17 71° 260° (W) 10:05:05 435.215
ESTCUBE 1 28 Aug 09:49:48 09:52:47 18° 113° (ESE) 09:55:57 437.505/2401.250
COMPASS 1 28 Aug 09:51:20 09:52:27 11° 268° (W) 09:53:17 437.405
RS-15 28 Aug 09:59:58 10:06:49 17° 173° (S) 10:13:37 29.354- 29.394
AUBIESAT-1 28 Aug 10:05:47 10:08:17 16° 82° (E) 10:11:03 437.475
M-CUBED/EXP-1 PRIME 28 Aug 10:05:59 10:08:53 19° 81° (E) 10:12:03 437.505
DX 1 28 Aug 10:16:36 10:21:02 77° 104° (ESE) 10:25:30 434.975-435.025
AISAT 28 Aug 10:19:20 10:23:42 51° 106° (ESE) 10:28:08 437.250
UNISAT 6 28 Aug 10:22:11 10:26:15 35° 83° (E) 10:30:23 437.425
CUBEBUG 1 28 Aug 10:34:59 10:39:12 43° 107° (ESE) 10:43:30 437.445
UKube-1 28 Aug 10:36:53 10:41:14 69° 283° (WNW) 10:45:40 .
50 SAT 28 Aug 10:38:12 10:42:02 81° 284° (WNW) 10:45:56 437.505
Cosmos 2504 28 Aug 10:46:45 10:53:22 35° 91° (E) 10:59:47 435.465 / 435.565
VELOX 1 28 Aug 10:48:50 10:53:20 78° 282° (WNW) 10:57:54 145.980
SPROUT 28 Aug 10:50:27 10:53:27 19° 112° (ESE) 10:56:36 437.525
POLYITAN 1 28 Aug 10:51:17 10:54:49 25° 85° (E) 10:58:23 437.675
TIGRISAT 28 Aug 10:52:30 10:56:56 75° 79° (ENE) 11:01:25 435.000
HUMSAT D 28 Aug 10:55:03 10:58:19 22° 274° (W) 11:01:32 437.325/437.525
POPSAT HIP 1 28 Aug 10:55:44 10:59:23 28° 85° (E) 11:03:04 437.405
DUCHIFAT 1 28 Aug 11:00:30 11:04:14 30° 84° (E) 11:07:59 145.980
ANTELSAT 28 Aug 11:07:33 11:11:59 71° 256° (WSW) 11:16:27 437.575/2403.000
QB50P2 28 Aug 11:11:07 11:15:13 44° 81° (E) 11:19:17 145.880/145.840
NANOSAT C BR1 28 Aug 11:15:56 11:20:04 47° 81° (E) 11:24:10 145.865
ESTCUBE 1 28 Aug 11:25:00 11:29:21 42° 278° (W) 11:33:44 437.505/2401.250
QB50P1 28 Aug 11:27:28 11:31:44 68° 79° (E) 11:35:57 145.935-145.965
BUGSAT 1 28 Aug 11:29:08 11:33:00 39° 82° (E) 11:36:48 437.445
AUBIESAT-1 28 Aug 11:39:16 11:43:07 41° 249° (WSW) 11:47:11 437.475
M-CUBED/EXP-1 PRIME 28 Aug 11:40:03 11:43:43 34° 248° (WSW) 11:47:36 437.505
DANDE 28 Aug 11:43:54 11:51:12 37° 87° (E) 11:57:41 436.750
BEESAT 3 28 Aug 11:46:14 11:48:53 17° 133° (SE) 11:51:37 437.485
CUSAT 1 28 Aug 11:50:38 11:58:06 54° 84° (E) 12:04:15 437.405
YUBILEINY 28 Aug 11:51:21 11:55:08 13° 238° (WSW) 11:58:14 435.215
BEESAT 2 28 Aug 11:51:26 11:53:47 15° 134° (SE) 11:56:15 435.950
AISAT 28 Aug 11:58:15 12:00:38 14° 270° (W) 12:02:47 437.250
UNISAT 6 28 Aug 11:59:33 12:02:50 20° 249° (WSW) 12:06:01 437.425
TISAT 1 28 Aug 12:11:46 12:16:03 89° 302° (WNW) 12:20:23 437.305
CUBEBUG 1 28 Aug 12:12:58 12:15:49 16° 271° (W) 12:18:28 437.445
RS-15 28 Aug 12:13:56 12:24:10 36° 140° (SE) 12:34:10 29.354- 29.394
SPROUT 28 Aug 12:25:17 12:29:18 35° 277° (W) 12:33:19 437.525
BEESAT 28 Aug 12:26:50 12:30:28 23° 112° (ESE) 12:34:17 436.000
POLYITAN 1 28 Aug 12:27:07 12:30:38 24° 250° (WSW) 12:34:02 437.675
POPSAT HIP 1 28 Aug 12:31:46 12:35:08 22° 249° (WSW) 12:38:23 437.405
DUCHIFAT 1 28 Aug 12:36:39 12:39:52 21° 249° (WSW) 12:42:58 145.980
Cosmos 2504 28 Aug 12:38:34 12:45:31 38° 255° (WSW) 12:52:03 435.465 / 435.565
QB50P2 28 Aug 12:48:15 12:50:45 15° 247° (WSW) 12:53:05 145.880/145.840
SWISSCUBE 28 Aug 12:51:04 12:55:35 43° 108° (ESE) 13:00:12 437.505
NANOSAT C BR1 28 Aug 12:53:15 12:55:31 14° 247° (WSW) 12:57:35 145.865
Oscar 19 28 Aug 12:59:23 13:03:35 25° 86° (E) 13:07:51 437.125/150
BUGSAT 1 28 Aug 13:05:40 13:08:09 15° 247° (WSW) 13:10:28 437.445
QB50P1 28 Aug 13:06:40 13:07:04 10° 245° (WSW) 13:07:13 145.935-145.965
KKS-1 28 Aug 13:18:11 13:19:32 11° 116° (ESE) 13:21:07 437.445
BEESAT 3 28 Aug 13:23:13 13:27:00 42° 296° (WNW) 13:30:46 437.485
PCSat 28 Aug 13:26:14 13:30:21 23° 72° (ENE) 13:34:38 145.827
DANDE 28 Aug 13:26:25 13:34:18 45° 256° (WSW) 13:40:55 436.750
ITUPSAT 1 28 Aug 13:26:54 13:31:43 89° 278° (W) 13:36:38 437.325
BEESAT 2 28 Aug 13:28:13 13:32:07 50° 297° (WNW) 13:36:01 435.950
AIST 2 28 Aug 13:32:41 13:36:28 33° 127° (SE) 13:40:18 435.215
CUSAT 1 28 Aug 13:34:36 13:40:45 26° 253° (WSW) 13:45:51 437.405
SO-50 28 Aug 13:47:00 13:51:31 79° 61° (ENE) 13:55:57 436.795
ITAMSAT 1 28 Aug 13:48:31 13:52:03 18° 89° (E) 13:55:44 435.822/435.867
BEESAT 28 Aug 14:03:42 14:08:07 36° 277° (W) 14:12:34 436.000
RS-15 28 Aug 14:26:20 14:37:36 70° 296° (WNW) 14:48:20 29.354- 29.394
SWISSCUBE 28 Aug 14:30:16 14:33:40 18° 272° (W) 14:36:55 437.505
GONETS M04 28 Aug 14:34:02 14:42:34 56° 89° (E) 14:51:13
MOZHAYETS 4 28 Aug 14:34:51 14:35:15 10° 116° (ESE) 14:35:55
Oscar 19 28 Aug 14:38:18 14:43:01 35° 250° (WSW) 14:47:38 437.125/150
Gurwin Techsat 1B 28 Aug 14:42:02 14:47:27 77° 78° (ENE) 14:52:48 435.225
STARS 28 Aug 14:44:12 14:48:33 58° 106° (ESE) 14:52:57 437.465
AO-7 28 Aug 14:44:35 14:48:54 16° 92° (E) 14:53:49 29.400- 29.500
Cosmos 2499 28 Aug 14:49:26 14:51:34 12° 98° (E) 14:54:15 435.465 / 435.565
KKS-1 28 Aug 14:51:10 14:55:39 68° 281° (WNW) 15:00:11 437.445
PCSat 28 Aug 15:08:19 15:13:30 45° 237° (WSW) 15:18:43 145.827
AIST 2 28 Aug 15:11:40 15:14:52 21° 292° (WNW) 15:17:57 435.215
JAS-2 28 Aug 15:22:17 15:28:13 75° 78° (ENE) 15:34:54 435.910
ITAMSAT 1 28 Aug 15:26:46 15:31:53 50° 252° (WSW) 15:36:55 435.822/435.867
SO-50 28 Aug 15:30:25 15:32:36 13° 222° (SW) 15:34:37 436.795
HORYU 2 28 Aug 15:55:04 15:59:22 41° 81° (E) 16:03:38 437.375
MOZHAYETS 4 28 Aug 16:07:15 16:11:51 79° 282° (WNW) 16:16:33
VERMONT LUNAR 28 Aug 16:10:47 16:13:11 20° 31° (NNE) 16:15:38 437.305
CUBESAT XI-V 28 Aug 16:15:29 16:16:29 11° 116° (ESE) 16:17:47 437.345
STARS 28 Aug 16:23:48 16:25:26 11° 269° (W) 16:26:48 437.465
Gurwin Techsat 1B 28 Aug 16:24:08 16:26:49 14° 243° (WSW) 16:29:13 435.225
GONETS M04 28 Aug 16:32:15 16:39:56 30° 249° (WSW) 16:47:24
AO-7 28 Aug 16:34:29 16:42:59 87° 70° (ENE) 16:51:24 29.400- 29.500
Cosmos 2499 28 Aug 16:36:12 16:43:51 85° 83° (E) 16:51:08 435.465 / 435.565
RS-15 28 Aug 16:43:52 16:48:10 12° 279° (W) 16:51:16 29.354- 29.394
JAS-2 28 Aug 17:09:19 17:12:57 16° 245° (WSW) 17:16:28 435.910
CUTE-I 28 Aug 17:20:00 17:22:03 12° 92° (E) 17:24:27 437.470
O/OREOS (USA 219) 28 Aug 17:26:59 17:31:32 74° 111° (ESE) 17:36:02 437.305
STRAND 1 28 Aug 17:30:23 17:34:02 20° 114° (ESE) 17:37:52 437.568
HORYU 2 28 Aug 17:32:37 17:35:42 18° 247° (WSW) 17:38:37 437.375
VERMONT LUNAR 28 Aug 17:46:17 17:49:27 88° 187° (S) 17:52:37 437.305
CUBESAT XI-V 28 Aug 17:48:35 17:53:19 79° 281° (W) 17:58:08 437.345
Cubesat XI-IV 28 Aug 18:11:12 18:16:19 41° 82° (E) 18:21:24 437.490
AO-7 28 Aug 18:28:54 18:34:53 21° 235° (SW) 18:40:29 29.400- 29.500
PRISM 28 Aug 18:33:25 18:37:31 57° 105° (ESE) 18:41:43 437.425
Cosmos 2499 28 Aug 18:33:42 18:38:02 15° 244° (WSW) 18:41:50 435.465 / 435.565
PHONESAT 2.4 28 Aug 18:43:02 18:46:12 32° 28° (NNE) 18:49:25 2401.200-2431.200
CUTE-I 28 Aug 18:57:21 19:02:49 74° 255° (WSW) 19:08:11 437.470
STRAND 1 28 Aug 19:07:57 19:12:55 47° 279° (W) 19:17:57 437.568
VERMONT LUNAR 28 Aug 19:23:00 19:26:06 49° 180° (S) 19:29:11 437.305
BRITE-PL 28 Aug 19:37:12 19:41:29 44° 82° (E) 19:45:31 437.365/2234.400
Cubesat XI-IV 28 Aug 19:51:49 19:56:12 24° 247° (WSW) 20:00:24 437.490
YUBILEINY 28 Aug 20:00:02 20:08:33 54° 103° (ESE) 20:17:05 435.215
COMPASS 1 28 Aug 20:00:13 20:00:52 10° 92° (E) 20:01:48 437.405
AIST 1 28 Aug 20:00:20 20:04:37 52° 86° (E) 20:09:01
PRISM 28 Aug 20:12:24 20:13:24 10° 269° (W) 20:14:07 437.425
AAUSAT CUBESAT 2 28 Aug 20:13:13 20:15:04 13° 90° (E) 20:17:08 437.432
PHONESAT 2.4 28 Aug 20:20:27 20:23:59 73° 194° (SSW) 20:27:32 2401.200-2431.200
CUTE 1.7 + AOD 2 28 Aug 20:21:18 20:25:12 32° 84° (E) 20:29:06 437.475
GOMX 1 28 Aug 20:28:01 20:32:21 85° 254° (WSW) 20:36:31 467.674
HO-68 28 Aug 20:28:17 20:35:09 47° 81° (E) 20:42:01 435.675
CANX-2 28 Aug 20:34:20 20:38:36 52° 81° (E) 20:42:51 2200.000
CINEMA 3 28 Aug 20:42:04 20:45:46 30° 84° (E) 20:49:34 145.822/145.860
Cosmos 2491 28 Aug 20:43:07 20:51:35 55° 89° (E) 21:00:13 435.465 / 435.565
Oscar 11 28 Aug 20:47:23 20:49:36 14° 90° (E) 20:52:03 145.826/435.025
AUBIESAT-1 28 Aug 20:53:30 20:54:41 12° 117° (ESE) 20:56:01 437.475
M-CUBED/EXP-1 PRIME 28 Aug 20:53:57 20:55:45 14° 116° (ESE) 20:57:41 437.505
VERMONT LUNAR 28 Aug 20:59:35 21:02:45 88° 166° (SSE) 21:05:54 437.305
CUBEBUG 2 28 Aug 21:01:20 21:04:37 22° 86° (E) 21:08:00 437.445
DOVE 4 28 Aug 21:02:29 21:06:40 59° 255° (WSW) 21:10:46 437.250
SEEDS 28 Aug 21:03:32 21:07:53 81° 77° (ENE) 21:12:11 437.485
DELFI C3 28 Aug 21:07:31 21:09:44 14° 89° (E) 21:12:06 145.870
ISS 28 Aug 21:08:54 21:11:44 28° 47° (NE) 21:14:39 145.825
BRITE-PL 28 Aug 21:17:05 21:19:37 15° 245° (WSW) 21:21:55 437.365/2234.400
UWE-3 28 Aug 21:17:06 21:20:38 25° 85° (E) 21:24:16 435.000/436.395/437.385
UNISAT 6 28 Aug 21:19:56 21:23:27 25° 110° (ESE) 21:27:03 437.425
ZACube-1 28 Aug 21:20:10 21:23:20 20° 87° (E) 21:26:39 437.345
FUNcube-1 28 Aug 21:27:20 21:30:47 24° 86° (E) 21:34:21 145.935
COMPASS 1 28 Aug 21:32:44 21:36:59 59° 255° (WSW) 21:41:10 437.405
AIST 1 28 Aug 21:40:40 21:42:43 13° 249° (WSW) 21:44:33
POLYITAN 1 28 Aug 21:43:20 21:45:58 17° 112° (ESE) 21:48:47 437.675
AAUSAT CUBESAT 2 28 Aug 21:46:51 21:50:59 48° 254° (WSW) 21:55:04 437.432
POPSAT HIP 1 28 Aug 21:47:27 21:50:18 18° 112° (ESE) 21:53:17 437.405
TIGRISAT 28 Aug 21:49:31 21:53:43 51° 106° (ESE) 21:57:57 435.000
DUCHIFAT 1 28 Aug 21:51:38 21:54:36 19° 111° (ESE) 21:57:44 145.980
YUBILEINY 28 Aug 21:57:36 22:05:01 31° 265° (W) 22:12:08 435.215
CUTE 1.7 + AOD 2 28 Aug 21:57:39 22:00:55 20° 249° (WSW) 22:04:03 437.475
PHONESAT 2.4 28 Aug 21:58:37 22:02:07 54° 176° (S) 22:05:36 2401.200-2431.200
QB50P2 28 Aug 22:02:26 22:06:02 27° 109° (ESE) 22:09:43 145.880/145.840
ANTELSAT 28 Aug 22:04:37 22:08:58 82° 103° (ESE) 22:13:20 437.575/2403.000
NANOSAT C BR1 28 Aug 22:06:47 22:10:27 29° 109° (ESE) 22:14:12 145.865
DX 1 28 Aug 22:08:15 22:10:43 15° 89° (E) 22:13:22 434.975-435.025
CANX-2 28 Aug 22:11:54 22:14:07 13° 247° (WSW) 22:16:08 2200.000
AISAT 28 Aug 22:14:21 22:15:27 11° 91° (E) 22:16:51 437.250
PCSat 28 Aug 22:15:49 22:18:56 16° 136° (SE) 22:22:14 145.827
HO-68 28 Aug 22:16:25 22:22:41 32° 244° (WSW) 22:28:47 435.675
50 SAT 28 Aug 22:16:38 22:18:22 13° 89° (E) 22:20:17 437.505
BUGSAT 1 28 Aug 22:17:36 22:20:57 23° 110° (ESE) 22:24:24 437.445
QB50P1 28 Aug 22:18:16 22:22:15 39° 107° (ESE) 22:26:18 145.935-145.965
CINEMA 3 28 Aug 22:19:41 22:22:50 20° 250° (WSW) 22:25:55 145.822/145.860
SO-50 28 Aug 22:20:05 22:24:15 40° 126° (SE) 22:28:29 436.795
Oscar 11 28 Aug 22:21:51 22:26:06 46° 253° (WSW) 22:30:17 145.826/435.025
Cosmos 2504 28 Aug 22:25:26 22:32:21 56° 101° (E) 22:39:37 435.465 / 435.565
AUBIESAT-1 28 Aug 22:26:05 22:29:10 34° 283° (WNW) 22:32:16 437.475
UKube-1 28 Aug 22:26:50 22:30:13 22° 86° (E) 22:33:40 .
M-CUBED/EXP-1 PRIME 28 Aug 22:27:31 22:30:24 26° 282° (WNW) 22:33:16 437.505
CUSAT 1 28 Aug 22:33:30 22:34:52 13° 113° (ESE) 22:36:16 437.405
VERMONT LUNAR 28 Aug 22:36:34 22:39:00 20° 329° (NNW) 22:41:24 437.305
CUBEBUG 2 28 Aug 22:37:37 22:41:19 28° 251° (WSW) 22:45:00 437.445
HUMSAT D 28 Aug 22:39:27 22:43:40 65° 79° (E) 22:47:53 437.325/437.525
DELFI C3 28 Aug 22:41:07 22:45:00 40° 253° (WSW) 22:48:50 145.870
Cosmos 2491 28 Aug 22:41:14 22:48:56 31° 249° (WSW) 22:56:29 435.465 / 435.565
VELOX 1 28 Aug 22:41:50 22:45:20 23° 86° (E) 22:48:53 145.980
ISS 28 Aug 22:45:10 22:48:07 29° 211° (SSW) 22:51:05 145.825
UWE-3 28 Aug 22:53:34 22:57:07 25° 251° (WSW) 23:00:36 435.000/436.395/437.385
ZACube-1 28 Aug 22:55:57 22:59:45 30° 252° (WSW) 23:03:31 437.345
UNISAT 6 28 Aug 22:56:30 23:00:11 25° 275° (W) 23:03:46 437.425
FUNcube-1 28 Aug 23:03:28 23:07:05 26° 251° (WSW) 23:10:39 145.935
POLYITAN 1 28 Aug 23:17:32 23:21:35 39° 278° (W) 23:25:38 437.675
ESTCUBE 1 28 Aug 23:19:19 23:23:45 45° 81° (E) 23:28:08 437.505/2401.250
POPSAT HIP 1 28 Aug 23:21:55 23:25:54 36° 277° (W) 23:29:53 437.405
DUCHIFAT 1 28 Aug 23:26:18 23:30:12 33° 277° (W) 23:34:06 145.980
TIGRISAT 28 Aug 23:28:59 23:30:51 12° 270° (W) 23:32:28 435.000
PHONESAT 2.4 28 Aug 23:36:36 23:40:07 70° 338° (NNW) 23:43:38 2401.200-2431.200
QB50P2 28 Aug 23:38:25 23:41:54 23° 274° (W) 23:45:19 145.880/145.840
NANOSAT C BR1 28 Aug 23:42:55 23:46:17 22° 274° (W) 23:49:35 145.865
DX 1 28 Aug 23:43:02 23:47:14 43° 252° (WSW) 23:51:22 434.975-435.025
AISAT 28 Aug 23:48:05 23:52:31 60° 254° (WSW) 23:56:51 437.250
50 SAT 28 Aug 23:49:23 23:53:08 41° 254° (WSW) 23:56:51 437.505
BUGSAT 1 28 Aug 23:52:37 23:56:18 27° 276° (W) 23:59:57 437.445
QB50P1 28 Aug 23:55:36 23:58:19 16° 271° (W) 00:00:52 145.935-145.965
PCSat 28 Aug 23:57:39 00:03:08 83° 296° (WNW) 00:08:33 145.827
TISAT 1 28 Aug 23:59:16 00:01:51 16° 88° (E) 00:04:35 437.305
SO-50 29 Aug 00:01:20 00:04:30 19° 292° (WNW) 00:07:34 436.795
CUBEBUG 1 29 Aug 00:01:36 00:06:03 72° 256° (WSW) 00:10:23 437.445
UKube-1 29 Aug 00:02:31 00:06:23 29° 250° (WSW) 00:10:07 .
DANDE 29 Aug 00:12:30 00:15:39 31° 272° (W) 00:18:14 436.750
SPROUT 29 Aug 00:13:22 00:17:31 43° 82° (E) 00:21:38 437.525
Oscar 19 29 Aug 00:14:24 00:18:54 31° 111° (ESE) 00:23:30 437.125/150
CUSAT 1 29 Aug 00:15:47 00:17:20 13° 269° (W) 00:18:42 437.405
VELOX 1 29 Aug 00:17:58 00:21:54 30° 250° (WSW) 00:25:43 145.980
HUMSAT D 29 Aug 00:18:05 00:18:55 10° 246° (WSW) 00:19:29 437.325/437.525
Cosmos 2504 29 Aug 00:18:45 00:24:08 23° 266° (W) 00:29:25 435.465 / 435.565
Gurwin Techsat 1B 29 Aug 00:25:11 00:27:15 13° 118° (ESE) 00:29:36 435.225
GONETS M04 29 Aug 00:47:24 00:54:09 25° 114° (ESE) 01:01:10
SWISSCUBE 29 Aug 00:55:04 00:57:05 13° 91° (E) 00:59:22 437.505
ESTCUBE 1 29 Aug 00:57:16 01:00:15 17° 247° (WSW) 01:03:04 437.505/2401.250
ITAMSAT 1 29 Aug 01:04:36 01:08:43 25° 113° (ESE) 01:13:00 435.822/435.867
PHONESAT 2.4 29 Aug 01:15:26 01:17:40 16° 326° (NW) 01:19:49 2401.200-2431.200
ITUPSAT 1 29 Aug 01:29:51 01:33:58 27° 85° (E) 01:38:07 437.325
TISAT 1 29 Aug 01:33:51 01:37:48 37° 252° (WSW) 01:41:40 437.305
JAS-2 29 Aug 01:34:55 01:38:59 23° 112° (ESE) 01:43:06 435.910
AO-7 29 Aug 01:41:48 01:47:30 22° 124° (SE) 01:53:34 29.400- 29.500
SPROUT 29 Aug 01:50:38 01:53:15 15° 247° (WSW) 01:55:42 437.525
Oscar 19 29 Aug 01:53:44 01:58:15 29° 275° (W) 02:02:42 437.125/150
Gurwin Techsat 1B 29 Aug 02:01:14 02:06:34 82° 284° (WNW) 02:12:01 435.225
BEESAT 29 Aug 02:05:12 02:10:04 67° 78° (ENE) 02:14:52 436.000
Cosmos 2499 29 Aug 02:29:28 02:35:07 25° 110° (ESE) 02:41:14 435.465 / 435.565
SWISSCUBE 29 Aug 02:30:36 02:35:26 61° 254° (WSW) 02:40:11 437.505
RS-15 29 Aug 02:37:29 02:45:45 23° 77° (ENE) 02:54:37 29.354- 29.394
STARS 29 Aug 02:37:46 02:39:25 12° 90° (E) 02:41:19 437.465
GONETS M04 29 Aug 02:43:07 02:51:51 67° 273° (W) 03:00:26
ITAMSAT 1 29 Aug 02:43:08 02:48:02 39° 277° (W) 02:52:57 435.822/435.867
KKS-1 29 Aug 02:44:33 02:48:18 26° 85° (E) 02:52:05 437.445
HORYU 2 29 Aug 02:51:42 02:55:35 31° 110° (ESE) 02:59:34 437.375
ITUPSAT 1 29 Aug 03:07:34 03:11:50 29° 249° (WSW) 03:15:58 437.325
BEESAT 3 29 Aug 03:13:39 03:17:25 49° 64° (ENE) 03:21:12 437.485
JAS-2 29 Aug 03:18:49 03:23:59 39° 278° (W) 03:28:54 435.910
BEESAT 2 29 Aug 03:19:49 03:23:31 41° 64° (ENE) 03:27:16 435.950
AO-7 29 Aug 03:31:07 03:39:27 84° 287° (WNW) 03:47:53 29.400- 29.500
ISS 29 Aug 03:37:49 03:40:31 23° 152° (SSE) 03:43:14 145.825
JUGNU 29 Aug 03:38:15 03:40:54 13° 2° (N) 03:43:35 437.505
BEESAT 29 Aug 03:45:01 03:47:23 13° 244° (WSW) 03:49:30 436.000
MOZHAYETS 4 29 Aug 04:04:35 04:08:38 28° 85° (E) 04:12:43
STARS 29 Aug 04:11:55 04:16:15 54° 253° (WSW) 04:20:33 437.465
KKS-1 29 Aug 04:21:06 04:24:53 26° 250° (WSW) 04:28:32 437.445
Cosmos 2499 29 Aug 04:21:36 04:28:42 56° 273° (W) 04:36:11 435.465 / 435.565
HORYU 2 29 Aug 04:28:45 04:32:16 22° 274° (W) 04:35:42 437.375
CUTE-I 29 Aug 04:39:28 04:43:05 19° 115° (ESE) 04:46:54 437.470
SRMSAT 29 Aug 04:41:11 04:43:22 12° 7° (N) 04:45:37 437.500
RS-15 29 Aug 04:44:46 04:57:07 88° 239° (WSW) 05:09:07 29.354- 29.394
BEESAT 3 29 Aug 04:53:17 04:55:38 15° 226° (SW) 04:57:53 437.485
BEESAT 2 29 Aug 04:59:06 05:01:46 17° 227° (SW) 05:04:20 435.950
AIST 2 29 Aug 05:06:49 05:10:51 64° 238° (WSW) 05:14:56 435.215
ISS 29 Aug 05:13:53 05:17:03 42° 316° (NW) 05:20:10 145.825
JUGNU 29 Aug 05:27:12 05:29:06 11° 352° (N) 05:30:55 437.505
AO-7 29 Aug 05:29:07 05:33:36 14° 267° (W) 05:37:28 29.400- 29.500
Cubesat XI-IV 29 Aug 05:31:16 05:36:31 57° 107° (ESE) 05:41:53 437.490
MOZHAYETS 4 29 Aug 05:41:48 05:45:47 27° 250° (WSW) 05:49:38
CUBESAT XI-V 29 Aug 05:47:35 05:51:44 30° 85° (E) 05:55:53 437.345
O/OREOS (USA 219) 29 Aug 06:02:24 06:02:49 10° 81° (E) 06:03:33 437.305
AIST 1 29 Aug 06:11:39 06:13:01 11° 112° (ESE) 06:14:37
CUTE-I 29 Aug 06:17:30 06:22:46 54° 280° (W) 06:28:06 437.470
SRMSAT 29 Aug 06:29:06 06:31:43 13° 356° (N) 06:34:18 437.500
DOVE 4 29 Aug 06:31:41 06:33:05 11° 114° (ESE) 06:34:45 437.250
